Weather History for Custer, SD

Change the Weather History Date:

Tuesday, January 31, 2012

  Actual Average Record
Temperature  
Mean Temperature 30 °F 24 °F  
Max Temperature 39 °F 35 °F 60 °F (1960)
Min Temperature 21 °F 14 °F -20 °F (2011)
Degree Days  
Heating Degree Days 35 41  
Month to date heating degree days 1201 1271  
Since 1 July heating degree days 4403 4735  
Cooling Degree Days 0 0  
Month to date cooling degree days 0 0  
Year to date cooling degree days 0 0  
Moisture  
Dew Point 16 °F    
Average Humidity 56    
Maximum Humidity 75    
Minimum Humidity 37    
Precipitation  
Precipitation 0.00 in 0.01 in 0.20 in (1958)
Month to date precipitation 0.20 0.33  
Year to date precipitation 0.20 0.33  
Sea Level Pressure  
Sea Level Pressure 29.97 in    
Wind  
Wind Speed 8 mph (WNW)    
Max Wind Speed 21 mph    
Max Gust Speed 30 mph    
Visibility 10 miles    
Events      
T = Trace of Precipitation, MM = Missing Value Source: NWS Daily Summary

Daily Weather History Graph

Daily Weather History Graph

Search for Another Location

Airport:

Trip Planner

Search our weather history database for the weather conditions in past years. The results will help you decide how hot, cold, wet, or windy it might be!

Date:

Astronomy

Jan. 31, 2012 Rise Set
Actual Time 7:12 AM MST 5:03 PM MST
Civil Twilight 6:42 AM MST 5:34 PM MST
Nautical Twilight 6:07 AM MST 6:08 PM MST
Astronomical Twilight 5:33 AM MST 6:42 PM MST
Moon 10:53 AM MST (1/31) 1:03 AM MST (1/31)
Length of Visible Light 10h 52m
Length of Day
9h 50m
First Quarter, 56% of the Moon is Illuminated
Jan 31
First Quarter
Feb 7
Full
Feb 14
Last Quarter
Feb 21
New
Feb 29
First Quarter

Hourly Weather History & Observations

Time (MST) Temp. Windchill Dew Point Humidity Pressure Visibility Wind Dir Wind Speed Gust Speed Precip Events Conditions
12:53 AM 30.0 °F 19.5 °F 23.0 °F 75% 29.78 in 10.0 mi WNW 13.8 mph 21.9 mph N/A   Clear
1:53 AM 30.0 °F 24.1 °F 23.0 °F 75% 29.80 in 10.0 mi NW 5.8 mph - N/A   Mostly Cloudy
2:53 AM 28.9 °F 20.4 °F 21.0 °F 72% 29.81 in 10.0 mi WNW 9.2 mph - N/A   Clear
3:53 AM 27.0 °F 18.7 °F 19.9 °F 75% 29.84 in 10.0 mi West 8.1 mph - N/A   Clear
4:53 AM 28.9 °F 22.8 °F 19.0 °F 67% 29.87 in 10.0 mi West 5.8 mph - N/A   Clear
5:53 AM 28.9 °F 22.8 °F 16.0 °F 58% 29.91 in 10.0 mi NW 5.8 mph - N/A   Clear
6:53 AM 28.9 °F 21.1 °F 16.0 °F 58% 29.93 in 10.0 mi NW 8.1 mph - N/A   Clear
7:53 AM 28.0 °F 21.7 °F 16.0 °F 61% 29.97 in 10.0 mi WSW 5.8 mph - N/A   Clear
8:53 AM 30.9 °F 26.2 °F 18.0 °F 59% 29.98 in 10.0 mi WSW 4.6 mph - N/A   Clear
9:53 AM 35.1 °F 25.9 °F 17.1 °F 48% 29.98 in 10.0 mi WNW 13.8 mph 19.6 mph N/A   Clear
10:53 AM 37.9 °F 30.0 °F 16.0 °F 41% 29.96 in 10.0 mi West 12.7 mph 20.7 mph N/A   Clear
11:53 AM 37.9 °F 30.9 °F 15.1 °F 39% 29.97 in 10.0 mi WNW 10.4 mph 24.2 mph N/A   Clear
12:53 PM 37.9 °F 30.0 °F 14.0 °F 38% 29.97 in 10.0 mi NW 12.7 mph 29.9 mph N/A   Clear
1:53 PM 37.0 °F 29.8 °F 14.0 °F 39% 29.96 in 10.0 mi WNW 10.4 mph 21.9 mph N/A   Clear
2:53 PM 36.0 °F 28.0 °F 14.0 °F 41% 29.98 in 10.0 mi WNW 11.5 mph 21.9 mph N/A   Partly Cloudy
3:53 PM 37.0 °F 30.4 °F 14.0 °F 39% 30.01 in 10.0 mi West 9.2 mph - N/A   Clear
4:53 PM 33.1 °F 26.9 °F 16.0 °F 50% 30.04 in 10.0 mi West 6.9 mph - N/A   Clear
5:53 PM 28.0 °F - 15.1 °F 58% 30.06 in 10.0 mi Calm Calm - N/A   Clear
6:53 PM 27.0 °F 23.0 °F 14.0 °F 58% 30.07 in 10.0 mi WNW 3.5 mph - N/A   Clear
7:53 PM 27.0 °F 21.6 °F 14.0 °F 58% 30.08 in 10.0 mi West 4.6 mph - N/A   Clear
8:53 PM 26.1 °F 20.5 °F 14.0 °F 60% 30.07 in 10.0 mi WSW 4.6 mph - N/A   Clear
9:53 PM 23.0 °F 17.0 °F 14.0 °F 68% 30.08 in 10.0 mi NNW 4.6 mph - N/A   Clear
10:53 PM 24.1 °F 16.0 °F 15.1 °F 69% 30.07 in 10.0 mi West 6.9 mph - N/A   Clear
11:53 PM 24.1 °F 18.2 °F 15.1 °F 69% 30.08 in 10.0 mi NW 4.6 mph - N/A   Clear